This is the latest recevied weather packets stored in our database for station/object KG7MRB. If no packets are shown the sender has not sent any weather packets the latest 10 day(s).
| Time | Temp. | Humidity | Pressure | Rain* | Wind** | Luminosity | Snow |
|---|---|---|---|---|---|---|---|
| 1778035879 | 16.67° C | 80% | 1032.1 hPa | 0 mm | - | 20 W/m² | - |
| 1778035577 | 16.67° C | 80% | 1032.2 hPa | 0 mm | - | 22 W/m² | - |
| 1778035273 | 16.67° C | 80% | 1032 hPa | 0 mm | - | 24 W/m² | - |
| 1778034969 | 17.22° C | 79% | 1032 hPa | 0 mm | - | 26 W/m² | - |
| 1778034667 | 17.22° C | 79% | 1032 hPa | 0 mm | - | 28 W/m² | - |
| 1778034364 | 17.22° C | 79% | 1032 hPa | 0 mm | - | 31 W/m² | - |
| 1778034061 | 17.22° C | 78% | 1032.1 hPa | 0 mm | - | 32 W/m² | - |
| 1778033759 | 17.78° C | 78% | 1032 hPa | 0 mm | - | 34 W/m² | - |
| 1778033456 | 17.78° C | 77% | 1032 hPa | 0 mm | - | 35 W/m² | - |
| 1778033153 | 17.78° C | 76% | 1032 hPa | 0 mm | - | 42 W/m² | - |
| 1778032850 | 17.78° C | 76% | 1031.9 hPa | 0 mm | - | 41 W/m² | - |
| 1778032548 | 18.33° C | 76% | 1032 hPa | 0 mm | - | 45 W/m² | - |
| 1778032245 | 18.33° C | 75% | 1032.1 hPa | 0 mm | - | 42 W/m² | - |
| 1778031942 | 18.89° C | 74% | 1031.9 hPa | 0 mm | - | 64 W/m² | - |
| 1778031638 | 18.89° C | 74% | 1031.9 hPa | 0 mm | - | 45 W/m² | - |
| 1778031336 | 18.89° C | 74% | 1032 hPa | 0 mm | - | 58 W/m² | - |
| 1778031032 | 18.89° C | 74% | 1031.7 hPa | 0 mm | - | 46 W/m² | - |
| 1778030729 | 18.89° C | 73% | 1031.9 hPa | 0 mm | - | 47 W/m² | - |
| 1778030426 | 19.44° C | 73% | 1031.8 hPa | 0 mm | - | 48 W/m² | - |
| 1778030123 | 18.89° C | 73% | 1031.7 hPa | 0 mm | - | 50 W/m² | - |
| 1778029819 | 18.89° C | 73% | 1031.8 hPa | 0 mm | - | 54 W/m² | - |
| 1778029514 | 18.89° C | 73% | 1031.8 hPa | 0 mm | - | 119 W/m² | - |
| 1778029210 | 19.44° C | 73% | 1031.9 hPa | 0 mm | - | 54 W/m² | - |
| 1778028907 | 18.89° C | 73% | 1031.8 hPa | 0 mm | - | 60 W/m² | - |
| 1778028603 | 19.44° C | 73% | 1031.9 hPa | 0 mm | - | 69 W/m² | - |
* Rain latest hour (hover to see other rain measurements)
** Current wind speed in m/s (hover to see current wind gust speed)